FW8074 Weather Reports


Display with metric or nautical units.
time (UTC)temp
F
wind
direction
speed
MPH
gust
MPH
rain 1hr
in
rain 24hr
in
rain mn
in
humidity
%
barometer
mb
20260903180104 95 0 0.0 0.0 0.00 0.00 0.00 62 1013.9
20260903174608 94 0 0.0 0.0 0.00 0.00 0.00 64 1014.0
20260903173106 94 0 0.0 0.0 0.00 0.00 0.00 63 1014.1
20260903171603 93 0 0.0 0.0 0.00 0.00 0.00 65 1014.1
20260903170107 93 0 0.0 0.0 0.00 0.00 0.00 64 1014.3
20260903164606 92 0 0.0 0.0 0.00 0.00 0.00 65 1014.6
20260903163106 92 0 0.0 0.0 0.00 0.00 0.00 66 1014.7
20260903161606 92 0 0.0 0.0 0.00 0.00 0.00 66 1014.8
20260903154606 91 0 0.0 0.0 0.00 0.00 0.00 70 1015.0
20260903153130 91 0 0.0 0.0 0.00 0.00 0.00 68 1014.9
20260903151617 90 0 0.0 0.0 0.00 0.00 0.00 70 1015.0
20260903150121 90 0 0.0 0.0 0.00 0.00 0.00 69 1015.0
20260903144611 89 0 0.0 0.0 0.00 0.00 0.00 69 1015.0
20260903143109 89 0 0.0 0.0 0.00 0.00 0.00 70 1015.0
20260903141604 89 0 0.0 0.0 0.00 0.00 0.00 72 1014.7
20260903140106 88 0 0.0 0.0 0.00 0.00 0.00 74 1014.8
20260903134605 86 0 0.0 0.0 0.00 0.00 0.00 78 1014.8
20260903133106 84 0 0.0 0.0 0.00 0.00 0.00 85 1015.0
20260903131605 83 0 0.0 0.0 0.00 0.00 0.00 86 1015.1
20260903124608 77 0 0.0 0.0 0.00 0.00 0.00 97 1015.1
20260903123103 75 0 0.0 0.0 0.00 0.00 0.00 99 1015.2
20260903121640 75 0 0.0 0.0 0.00 0.00 0.00 99 1015.1
20260903114604 74 0 0.0 0.0 0.00 0.00 0.00 98 1014.9
20260903113105 74 0 0.0 0.0 0.00 0.00 0.00 98 1014.8
20260903111609 73 0 0.0 0.0 0.00 0.00 0.00 98 1014.8
20260903110104 74 0 0.0 0.0 0.00 0.00 0.00 98 1014.5
20260903104627 74 0 0.0 0.0 0.00 0.00 0.00 98 1014.4
20260903103107 74 0 0.0 0.0 0.00 0.00 0.00 98 1014.3
20260903101604 74 0 0.0 0.0 0.00 0.00 0.00 98 1014.2
20260903100106 74 0 0.0 0.0 0.00 0.00 0.00 97 1014.1
20260903094616 75 0 0.0 0.0 0.00 0.00 0.00 97 1014.2
20260903093109 75 0 0.0 0.0 0.00 0.00 0.00 97 1014.2
20260903091603 75 0 0.0 0.0 0.00 0.00 0.00 97 1014.2
20260903090106 75 0 0.0 0.0 0.00 0.00 0.00 97 1014.3
20260903084604 75 0 0.0 0.0 0.00 0.00 0.00 96 1014.2
20260903083107 75 0 0.0 0.0 0.00 0.00 0.00 96 1014.0
20260903081634 75 0 0.0 0.0 0.00 0.00 0.00 96 1013.9
20260903080104 76 0 0.0 0.0 0.00 0.00 0.00 95 1014.0
20260903074604 76 0 0.0 0.0 0.00 0.00 0.00 95 1014.0
20260903073101 76 0 0.0 0.0 0.00 0.00 0.00 94 1013.7
20260903071604 77 0 0.0 0.0 0.00 0.00 0.00 94 1013.7
20260903070105 77 0 0.0 0.0 0.00 0.00 0.00 93 1013.5
20260903064601 77 0 0.0 0.0 0.00 0.00 0.00 93 1013.4
20260903063109 77 0 0.0 0.0 0.00 0.00 0.00 93 1013.3
20260903061605 78 0 0.0 0.0 0.00 0.00 0.00 92 1013.5
20260903060105 78 0 0.0 0.0 0.00 0.00 0.00 91 1013.5
20260903054616 78 0 0.0 0.0 0.00 0.00 0.00 91 1013.6
20260903053104 79 0 0.0 0.0 0.00 0.00 0.00 91 1013.7
20260903051602 79 0 0.0 0.0 0.00 0.00 0.00 90 1013.7
20260903050107 79 0 0.0 0.0 0.00 0.00 0.00 90 1013.7
20260903044603 80 0 0.0 0.0 0.00 0.00 0.00 89 1013.6
20260903043104 81 0 0.0 0.0 0.00 0.00 0.00 88 1013.2
20260903041602 81 0 0.0 0.0 0.00 0.00 0.00 88 1013.4
20260903040110 80 0 0.0 0.0 0.00 0.00 0.00 89 1013.4
20260903034607 80 0 0.0 0.0 0.00 0.00 0.00 90 1013.4
20260903033106 79 0 0.0 0.0 0.00 0.00 0.00 92 1013.6
20260903031613 79 0 0.0 0.0 0.00 0.00 0.00 91 1014.1
20260903030135 80 0 0.0 0.0 0.00 0.00 0.00 91 1014.3
20260903024603 80 0 0.0 0.0 0.00 0.00 0.00 91 1014.5
20260903023113 80 0 0.0 0.0 0.00 0.00 0.00 91 1014.7
20260903021600 81 0 0.0 0.0 0.00 0.00 0.00 90 1014.8
20260903020108 81 0 0.0 0.0 0.00 0.00 0.00 89 1014.8
20260903014616 82 0 0.0 0.0 0.00 0.00 0.00 89 1014.6
20260903013104 82 0 0.0 0.0 0.00 0.00 0.00 89 1014.2
20260903011606 83 0 0.0 0.0 0.00 0.00 0.00 87 1014.2
20260903010104 83 0 0.0 0.0 0.00 0.00 0.00 86 1014.0
20260903004606 83 0 0.0 0.0 0.00 0.00 0.00 83 1013.7
20260903003059 84 0 0.0 0.0 0.00 0.00 0.00 82 1013.5
20260903001611 84 0 0.0 0.0 0.00 0.00 0.00 81 1013.3
20260903000111 85 0 0.0 0.0 0.00 0.00 0.00 81 1013.2
20260902234605 86 0 0.0 0.0 0.00 0.00 0.00 79 1013.3
20260902233106 87 0 0.0 0.0 0.00 0.00 0.00 77 1013.2
20260902231607 88 0 0.0 0.0 0.00 0.00 0.00 76 1013.2
20260902230103 89 0 0.0 0.0 0.00 0.00 0.00 73 1013.1
20260902224604 91 0 0.0 0.0 0.00 0.00 0.00 70 1012.9
20260902223102 92 0 0.0 0.0 0.00 0.00 0.00 68 1012.8
20260902221623 93 0 0.0 0.0 0.00 0.00 0.00 65 1012.9
20260902220108 94 0 0.0 0.0 0.00 0.00 0.00 66 1012.9
20260902214604 94 0 0.0 0.0 0.00 0.00 0.00 59 1013.0
20260902213102 95 0 0.0 0.0 0.00 0.00 0.00 59 1013.0
20260902211607 95 0 0.0 0.0 0.00 0.00 0.00 59 1013.0
20260902210106 95 0 0.0 0.0 0.00 0.00 0.00 59 1013.2
20260902204617 95 0 0.0 0.0 0.00 0.00 0.00 54 1013.2
20260902203101 95 0 0.0 0.0 0.00 0.00 0.00 56 1013.3
20260902201605 96 0 0.0 0.0 0.00 0.00 0.00 55 1013.3
20260902200104 96 0 0.0 0.0 0.00 0.00 0.00 55 1013.4
20260902194625 96 0 0.0 0.0 0.00 0.00 0.00 55 1013.7
20260902193102 96 0 0.0 0.0 0.00 0.00 0.00 57 1013.8
20260902191609 96 0 0.0 0.0 0.00 0.00 0.00 56 1014.0
20260902190106 96 0 0.0 0.0 0.00 0.00 0.00 57 1014.0
20260902184605 96 0 0.0 0.0 0.00 0.00 0.00 56 1014.2
20260902183137 95 0 0.0 0.0 0.00 0.00 0.00 57 1014.4
20260902181610 96 0 0.0 0.0 0.00 0.00 0.00 57 1014.4